SR9NCI Weather Reports


time (UTC)temp
F
wind
direction
speed
knots
gust
knots
rain 1hr
in
rain 24hr
in
rain mn
in
humidity
%
barometer
mb
20260831181810 73 292 1.7 2.6 0.00 0.00 0.00
20260831181408 73 292 1.7 3.5 0.00 0.00 0.00
20260831181006 73 292 1.7 2.6 0.00 0.00 0.00
20260831180604 74 270 1.7 1.7 0.00 0.00 0.00
20260831180203 74 270 1.7 1.7 0.00 0.00 0.00
20260831175802 74 270 1.7 2.6 0.00 0.00 0.00
20260831175359 74 270 1.7 2.6 0.00 0.00 0.00
20260831174951 75 270 1.7 2.6 0.00 0.00 0.00
20260831174549 74 270 2.6 4.3 0.00 0.00 0.00
20260831174148 75 270 3.5 4.3 0.00 0.00 0.00
20260831173746 75 270 3.5 5.2 0.00 0.00 0.00
20260831173344 75 270 2.6 5.2 0.00 0.00 0.00
20260831172943 75 270 2.6 3.5 0.00 0.00 0.00
20260831172542 75 270 2.6 5.2 0.00 0.00 0.00
20260831172140 76 270 3.5 4.3 0.00 0.00 0.00
20260831171738 76 272 3.5 5.2 0.00 0.00 0.00
20260831171336 76 269 4.3 6.1 0.00 0.00 0.00
20260831170928 76 272 3.5 5.2 0.00 0.00 0.00
20260831170527 77 265 5.2 7.8 0.00 0.00 0.00
20260831170124 77 256 3.5 6.1 0.00 0.00 0.00
20260831165724 78 244 4.3 7.0 0.00 0.00 0.00
20260831165322 79 254 4.3 8.7 0.00 0.00 0.00
20260831164921 82 262 2.6 6.1 0.00 0.00 0.00
20260831164518 82 249 2.6 4.3 0.00 0.00 0.00
20260831164117 82 248 3.5 7.0 0.00 0.00 0.00
20260831163716 83 268 2.6 5.2 0.00 0.00 0.00
20260831163314 82 256 4.3 7.0 0.00 0.00 0.00
20260831162905 82 254 4.3 7.8 0.00 0.00 0.00
20260831162502 81 261 4.3 7.0 0.00 0.00 0.00
20260831162101 77 266 3.5 6.1 0.00 0.00 0.00
20260831161700 78 254 4.3 6.1 0.00 0.00 0.00
20260831161258 79 255 3.5 5.2 0.00 0.00 0.00
20260831160856 78 252 4.3 7.0 0.00 0.00 0.00
20260831160453 78 265 3.5 5.2 0.00 0.00 0.00
20260831160052 78 255 4.3 6.1 0.00 0.00 0.00
20260831155651 78 265 3.5 5.2 0.00 0.00 0.00
20260831155248 78 258 6.1 7.8 0.00 0.00 0.00
20260831154840 78 255 4.3 7.0 0.00 0.00 0.00
20260831154438 78 259 5.2 10.4 0.00 0.00 0.00
20260831154037 78 261 4.3 7.0 0.00 0.00 0.00
20260831153635 79 236 4.3 10.4 0.00 0.00 0.00
20260831153233 79 258 7.8 10.4 0.00 0.00 0.00
20260831152832 79 259 7.8 10.4 0.00 0.00 0.00
20260831152430 79 255 7.8 11.3 0.00 0.00 0.00
20260831152028 80 272 5.2 8.7 0.00 0.00 0.00
20260831151627 79 232 7.0 9.6 0.00 0.00 0.00
20260831151225 79 236 6.1 11.3 0.00 0.00 0.00
20260831150818 78 235 8.7 12.2 0.00 0.00 0.00
20260831150416 78 230 7.0 8.7 0.00 0.00 0.00
20260831150014 78 243 7.0 10.4 0.00 0.00 0.00
20260831145613 78 260 7.8 9.6 0.00 0.00 0.00
20260831145211 78 263 8.7 11.3 0.00 0.00 0.00
20260831144810 78 263 8.7 13.0 0.00 0.00 0.00
20260831144506 78 269 5.2 7.8 0.00 0.00 0.00
20260831144407 77 254 9.6 14.8 0.00 0.00 0.00
20260831144005 78 263 7.8 13.0 0.00 0.00 0.00
20260831143604 78 269 5.2 7.8 0.00 0.00 0.00
20260831143310 78 243 7.8 10.4 0.00 0.00 0.00
20260831143202 78 243 7.8 10.4 0.00 0.00 0.00
20260831142753 78 236 7.8 12.2 0.00 0.00 0.00
20260831142351 79 235 7.8 12.2 0.00 0.00 0.00
20260831141950 78 244 7.0 8.7 0.00 0.00 0.00
20260831141549 79 254 6.1 8.7 0.00 0.00 0.00
20260831141146 79 231 7.8 10.4 0.00 0.00 0.00
20260831140343 78 251 7.0 12.2 0.00 0.00 0.00
20260831135942 77 255 7.8 12.2 0.00 0.00 0.00
20260831135541 77 260 7.8 12.2 0.00 0.00 0.00
20260831135138 77 251 7.8 10.4 0.00 0.00 0.00
20260831134730 78 252 7.8 12.2 0.00 0.00 0.00
20260831134328 79 247 7.0 11.3 0.00 0.00 0.00
20260831133928 78 250 8.7 11.3 0.00 0.00 0.00
20260831133525 78 259 7.8 14.8 0.00 0.00 0.00
20260831133124 77 258 7.8 12.2 0.00 0.00 0.00
20260831132723 77 256 7.0 10.4 0.00 0.00 0.00
20260831132321 77 245 8.7 12.2 0.00 0.00 0.00
20260831131919 76 255 7.8 13.9 0.00 0.00 0.00
20260831131518 77 254 6.1 9.6 0.00 0.00 0.00
20260831131116 77 261 7.0 9.6 0.00 0.00 0.00
20260831130708 76 271 8.7 13.0 0.00 0.00 0.00
20260831130305 76 267 7.8 11.3 0.00 0.00 0.00
20260831125903 76 264 7.0 10.4 0.00 0.00 0.00
20260831125502 76 272 9.6 14.8 0.00 0.00 0.00
20260831125100 76 268 7.0 12.2 0.00 0.00 0.00
20260831124659 75 269 6.1 9.6 0.00 0.00 0.00
20260831124256 75 277 10.4 15.6 0.00 0.00 0.00
20260831123856 76 272 10.4 16.5 0.00 0.00 0.00
20260831123454 78 278 6.1 14.8 0.00 0.00 0.00
20260831123053 78 274 8.7 12.2 0.00 0.00 0.00
20260831123006 78 274 8.7 12.2 0.00 0.00 0.00
20260831122643 78 274 8.7 12.2 0.00 0.00 0.00
20260831122242 79 269 7.0 8.7 0.00 0.00 0.00
20260831121841 79 277 7.8 10.4 0.00 0.00 0.00
20260831121440 79 272 9.6 15.6 0.00 0.00 0.00
20260831121037 80 284 7.8 10.4 0.00 0.00 0.00
20260831120636 80 294 9.6 15.6 0.00 0.00 0.00
20260831120233 81 260 7.8 14.8 0.00 0.00 0.00
20260831115832 81 257 7.0 10.4 0.00 0.00 0.00
20260831115430 81 246 7.0 8.7 0.00 0.00 0.00
20260831115028 81 271 7.0 12.2 0.00 0.00 0.00
20260831114620 81 248 6.1 7.8 0.00 0.00 0.00
20260831114217 82 267 3.5 5.2 0.00 0.00 0.00
20260831113817 81 260 4.3 6.1 0.00 0.00 0.00
20260831113414 82 306 2.6 4.3 0.00 0.00 0.00
20260831113012 81 299 2.6 4.3 0.00 0.00 0.00
20260831112612 81 344 2.6 4.3 0.00 0.00 0.00
20260831112210 81 315 1.7 3.5 0.00 0.00 0.00
20260831111808 81 305 2.6 4.3 0.00 0.00 0.00
20260831111407 80 308 4.3 6.1 0.00 0.00 0.00
20260831111004 81 333 2.6 5.2 0.00 0.00 0.00
20260831110556 80 321 3.5 5.2 0.00 0.00 0.00
20260831110153 81 326 3.5 5.2 0.00 0.00 0.00
20260831105752 82 157 2.6 4.3 0.00 0.00 0.00
20260831105352 83 157 0.9 1.7 0.00 0.00 0.00
20260831104950 82 157 2.6 3.5 0.00 0.00 0.00
20260831104548 82 157 1.7 2.6 0.00 0.00 0.00
20260831104146 82 157 3.5 5.2 0.00 0.00 0.00
20260831103820 82 157 3.5 6.1 0.00 0.00 0.00
20260831103745 82 157 3.5 6.1 0.00 0.00 0.00
20260831103344 82 157 4.3 6.1 0.00 0.00 0.00
20260831102533 81 195 5.2 7.0 0.00 0.00 0.00
20260831102131 81 197 5.2 7.8 0.00 0.00 0.00
20260831101730 81 205 4.3 7.8 0.00 0.00 0.00
20260831101329 81 207 3.5 7.0 0.00 0.00 0.00
20260831100926 81 194 7.0 11.3 0.00 0.00 0.00
20260831100525 82 174 4.3 8.7 0.00 0.00 0.00
20260831100123 81 196 4.3 7.8 0.00 0.00 0.00
20260831095722 82 157 1.7 3.5 0.00 0.00 0.00
20260831095320 82 135 0.0 1.7 0.00 0.00 0.00
20260831094918 81 135 2.6 4.3 0.00 0.00 0.00
20260831094510 82 135 2.6 3.5 0.00 0.00 0.00
20260831094108 82 135 1.7 3.5 0.00 0.00 0.00
20260831093706 81 135 2.6 6.1 0.00 0.00 0.00
20260831093305 81 135 2.6 5.2 0.00 0.00 0.00
20260831092502 81 135 5.2 8.7 0.00 0.00 0.00
20260831092100 81 130 3.5 5.2 0.00 0.00 0.00
20260831091658 82 135 4.3 7.0 0.00 0.00 0.00
20260831091257 82 132 4.3 6.1 0.00 0.00 0.00
20260831090855 82 135 3.5 6.1 0.00 0.00 0.00
20260831090447 82 132 4.3 7.0 0.00 0.00 0.00
20260831090044 82 132 4.3 7.0 0.00 0.00 0.00
20260831085643 82 140 4.3 7.0 0.00 0.00 0.00
20260831085242 82 144 4.3 7.8 0.00 0.00 0.00
20260831084840 83 137 3.5 7.0 0.00 0.00 0.00
20260831084438 82 138 4.3 8.7 0.00 0.00 0.00
20260831084036 82 136 4.3 7.0 0.00 0.00 0.00
20260831083635 81 142 6.1 10.4 0.00 0.00 0.00
20260831083234 81 131 4.3 7.8 0.00 0.00 0.00
20260831082831 81 135 4.3 8.7 0.00 0.00 0.00
20260831082423 81 135 4.3 5.2 0.00 0.00 0.00
20260831082021 80 135 3.5 6.1 0.00 0.00 0.00
20260831081620 80 131 3.5 7.0 0.00 0.00 0.00
20260831081219 80 135 3.5 6.1 0.00 0.00 0.00
20260831080816 80 133 6.1 8.7 0.00 0.00 0.00
20260831080415 80 133 6.1 10.4 0.00 0.00 0.00
20260831080013 80 140 5.2 7.8 0.00 0.00 0.00
20260831075613 80 143 5.2 7.8 0.00 0.00 0.00
20260831075210 80 137 6.1 8.7 0.00 0.00 0.00
20260831074809 80 126 5.2 8.7 0.00 0.00 0.00
20260831074401 80 127 6.1 8.7 0.00 0.00 0.00
20260831073959 80 138 7.0 12.2 0.00 0.00 0.00
20260831073557 80 129 7.0 9.6 0.00 0.00 0.00
20260831073156 80 140 6.1 10.4 0.00 0.00 0.00
20260831072754 80 134 5.2 8.7 0.00 0.00 0.00
20260831072353 79 118 4.3 7.0 0.00 0.00 0.00
20260831071950 79 134 5.2 9.6 0.00 0.00 0.00
20260831071549 78 153 7.0 9.6 0.00 0.00 0.00
20260831071148 78 139 4.3 8.7 0.00 0.00 0.00
20260831070746 77 138 7.0 8.7 0.00 0.00 0.00
20260831070338 77 150 6.1 9.6 0.00 0.00 0.00
20260831065935 78 137 5.2 7.8 0.00 0.00 0.00
20260831065534 78 133 5.2 8.7 0.00 0.00 0.00
20260831065133 78 140 5.2 8.7 0.00 0.00 0.00
20260831064731 78 139 6.1 8.7 0.00 0.00 0.00
20260831064329 76 137 7.0 8.7 0.00 0.00 0.00
20260831063927 76 139 6.1 11.3 0.00 0.00 0.00
20260831063526 76 137 7.0 10.4 0.00 0.00 0.00
20260831063125 76 133 4.3 7.8 0.00 0.00 0.00
20260831062722 76 139 4.3 8.7 0.00 0.00 0.00
20260831062400 76 137 5.2 7.8 0.00 0.00 0.00
20260831062314 76 137 5.2 7.8 0.00 0.00 0.00
20260831061912 77 135 2.6 4.3 0.00 0.00 0.00
20260831061511 76 130 2.6 4.3 0.00 0.00 0.00
20260831061109 75 112 3.5 5.2 0.00 0.00 0.00
20260831060707 75 133 2.6 4.3 0.00 0.00 0.00
20260831060306 74 135 3.5 5.2 0.00 0.00 0.00
20260831055904 74 133 3.5 7.0 0.00 0.00 0.00
20260831055503 74 135 3.5 5.2 0.00 0.00 0.00
20260831055100 74 135 4.3 6.1 0.00 0.00 0.00
20260831054659 73 143 3.5 7.0 0.00 0.00 0.00
20260831054251 73 137 4.3 7.0 0.00 0.00 0.00
20260831053849 73 135 2.6 5.2 0.00 0.00 0.00
20260831053447 72 135 3.5 6.1 0.00 0.00 0.00
20260831052644 71 135 0.0 1.7 0.00 0.00 0.00
20260831052243 71 124 1.7 5.2 0.00 0.00 0.00
20260831051840 72 135 1.7 3.5 0.00 0.00 0.00
20260831051438 72 133 3.5 6.1 0.00 0.00 0.00
20260831051037 73 135 2.6 5.2 0.00 0.00 0.00
20260831050635 72 135 1.7 3.5 0.00 0.00 0.00
20260831050225 72 111 0.9 2.6 0.00 0.00 0.00
20260831045824 70 111 0.9 1.7 0.00 0.00 0.00
20260831045423 70 111 1.7 1.7 0.00 0.00 0.00
20260831045022 70 111 1.7 2.6 0.00 0.00 0.00
20260831044620 70 129 2.6 5.2 0.00 0.00 0.00
20260831044218 70 115 2.6 5.2 0.00 0.00 0.00
20260831043815 70 121 4.3 7.0 0.00 0.00 0.00
20260831043414 69 131 3.5 5.2 0.00 0.00 0.00
20260831043013 68 152 2.6 5.2 0.00 0.00 0.00
20260831042610 67 157 1.7 3.5 0.00 0.00 0.00
20260831042202 68 157 2.6 4.3 0.00 0.00 0.00
20260831041801 68 157 2.6 5.2 0.00 0.00 0.00
20260831041400 68 157 3.5 4.3 0.00 0.00 0.00
20260831040957 67 157 2.6 4.3 0.00 0.00 0.00
20260831040556 67 157 2.6 4.3 0.00 0.00 0.00
20260831040155 68 157 2.6 5.2 0.00 0.00 0.00
20260831035753 68 157 2.6 3.5 0.00 0.00 0.00
20260831035351 67 157 2.6 3.5 0.00 0.00 0.00
20260831034950 67 157 2.6 3.5 0.00 0.00 0.00
20260831034548 68 157 3.5 4.3 0.00 0.00 0.00
20260831034140 68 157 2.6 4.3 0.00 0.00 0.00
20260831033738 68 157 2.6 4.3 0.00 0.00 0.00
20260831033336 68 157 4.3 7.0 0.00 0.00 0.00
20260831032935 68 157 5.2 7.0 0.00 0.00 0.00
20260831032533 68 156 4.3 7.8 0.00 0.00 0.00
20260831032132 69 157 4.3 7.0 0.00 0.00 0.00
20260831031729 69 158 4.3 7.0 0.00 0.00 0.00
20260831031328 68 156 4.3 7.8 0.00 0.00 0.00
20260831030926 68 157 4.3 7.0 0.00 0.00 0.00
20260831030524 68 158 4.3 7.0 0.00 0.00 0.00
20260831030115 68 158 4.3 6.1 0.00 0.00 0.00
20260831025713 68 154 4.3 7.0 0.00 0.00 0.00
20260831025312 68 157 3.5 5.2 0.00 0.00 0.00
20260831024911 68 157 3.5 5.2 0.00 0.00 0.00
20260831024508 68 157 3.5 4.3 0.00 0.00 0.00
20260831024107 68 157 2.6 3.5 0.00 0.00 0.00
20260831023705 68 157 2.6 3.5 0.00 0.00 0.00
20260831023304 68 157 2.6 3.5 0.00 0.00 0.00
20260831022903 68 157 3.5 4.3 0.00 0.00 0.00
20260831022500 68 157 2.6 3.5 0.00 0.00 0.00
20260831022052 69 157 3.5 4.3 0.00 0.00 0.00
20260831021650 69 157 3.5 6.1 0.00 0.00 0.00
20260831021249 69 159 4.3 7.0 0.00 0.00 0.00
20260831020847 68 154 4.3 7.8 0.00 0.00 0.00
20260831020445 69 166 3.5 5.2 0.00 0.00 0.00
20260831020044 68 165 4.3 6.1 0.00 0.00 0.00
20260831015642 68 157 4.3 6.1 0.00 0.00 0.00
20260831015240 69 157 3.5 5.2 0.00 0.00 0.00
20260831014839 68 157 3.5 5.2 0.00 0.00 0.00
20260831014437 69 157 4.3 5.2 0.00 0.00 0.00
20260831014030 69 152 4.3 7.0 0.00 0.00 0.00
20260831013627 68 152 4.3 7.0 0.00 0.00 0.00
20260831013226 69 157 3.5 5.2 0.00 0.00 0.00
20260831012825 69 148 3.5 5.2 0.00 0.00 0.00
20260831012423 69 148 5.2 7.8 0.00 0.00 0.00
20260831012022 69 145 5.2 7.0 0.00 0.00 0.00
20260831011619 69 148 4.3 7.0 0.00 0.00 0.00
20260831011218 69 141 4.3 7.8 0.00 0.00 0.00
20260831010817 69 150 4.3 7.0 0.00 0.00 0.00
20260831010415 69 150 5.2 7.8 0.00 0.00 0.00
20260831010006 69 154 3.5 7.0 0.00 0.00 0.00
20260831005604 69 157 4.3 7.8 0.00 0.00 0.00
20260831005203 69 157 3.5 5.2 0.00 0.00 0.00
20260831004802 69 157 3.5 5.2 0.00 0.00 0.00
20260831004359 69 151 4.3 5.2 0.00 0.00 0.00
20260831003958 69 135 3.5 5.2 0.00 0.00 0.00
20260831003556 69 139 3.5 5.2 0.00 0.00 0.00
20260831003155 69 153 4.3 7.8 0.00 0.00 0.00
20260831002753 69 157 3.5 6.1 0.00 0.00 0.00
20260831002351 69 152 4.3 6.1 0.00 0.00 0.00
20260831001943 69 156 4.3 7.0 0.00 0.00 0.00
20260831001541 69 156 4.3 6.1 0.00 0.00 0.00
20260831001141 69 157 3.5 4.3 0.00 0.00 0.00
20260831000738 69 148 2.6 4.3 0.00 0.00 0.00
20260831000336 69 157 2.6 4.3 0.00 0.00 0.00
20260830235936 69 157 2.6 5.2 0.00 0.00 0.00
20260830235534 70 157 4.3 5.2 0.00 0.00 0.00
20260830235132 69 146 3.5 5.2 0.00 0.00 0.00
20260830234731 70 135 2.6 3.5 0.00 0.00 0.00
20260830234328 70 157 3.5 5.2 0.00 0.00 0.00
20260830233920 70 135 3.5 4.3 0.00 0.00 0.00
20260830233517 70 135 2.6 4.3 0.00 0.00 0.00
20260830233116 71 135 2.6 4.3 0.00 0.00 0.00
20260830232716 70 157 3.5 5.2 0.00 0.00 0.00
20260830232313 71 137 3.5 6.1 0.00 0.00 0.00
20260830231911 71 141 2.6 3.5 0.00 0.00 0.00
20260830231509 71 135 2.6 3.5 0.00 0.00 0.00
20260830231108 71 141 2.6 5.2 0.00 0.00 0.00
20260830230707 71 135 1.7 3.5 0.00 0.00 0.00
20260830230305 71 135 1.7 3.5 0.00 0.00 0.00
20260830225856 71 135 1.7 2.6 0.00 0.00 0.00
20260830225454 70 135 1.7 3.5 0.00 0.00 0.00
20260830225053 70 135 0.9 1.7 0.00 0.00 0.00
20260830224652 70 135 0.9 1.7 0.00 0.00 0.00
20260830224249 71 135 0.9 2.6 0.00 0.00 0.00
20260830223848 70 135 1.7 1.7 0.00 0.00 0.00
20260830223446 70 135 1.7 2.6 0.00 0.00 0.00
20260830223045 69 135 2.6 3.5 0.00 0.00 0.00
20260830222241 70 157 1.7 3.5 0.00 0.00 0.00
20260830221833 69 157 1.7 2.6 0.00 0.00 0.00
20260830221431 69 157 1.7 2.6 0.00 0.00 0.00
20260830221029 69 157 1.7 2.6 0.00 0.00 0.00
20260830220628 70 172 1.7 2.6 0.00 0.00 0.00
20260830220226 71 202 1.7 3.5 0.00 0.00 0.00
20260830215825 70 220 2.6 5.2 0.00 0.00 0.00
20260830215423 69 265 3.5 4.3 0.00 0.00 0.00
20260830215021 68 270 3.5 4.3 0.00 0.00 0.00
20260830214620 69 256 3.5 4.3 0.00 0.00 0.00
20260830214218 68 269 4.3 7.0 0.00 0.00 0.00
20260830213810 69 297 4.3 6.1 0.00 0.00 0.00
20260830213407 73 166 1.7 4.3 0.00 0.00 0.00
20260830213006 72 135 3.5 5.2 0.00 0.00 0.00
20260830212605 72 135 3.5 7.0 0.00 0.00 0.00
20260830212203 73 135 5.2 7.8 0.00 0.00 0.00
20260830211801 73 135 4.3 6.1 0.00 0.00 0.00
20260830211400 73 143 5.2 7.8 0.00 0.00 0.00
20260830210558 73 143 5.2 8.7 0.00 0.00 0.00
20260830210155 73 140 5.2 7.0 0.00 0.00 0.00
20260830205747 73 146 5.2 7.8 0.00 0.00 0.00
20260830205345 73 145 4.3 6.1 0.00 0.00 0.00
20260830204944 72 150 4.3 7.0 0.00 0.00 0.00
20260830204543 72 156 4.3 6.1 0.00 0.00 0.00
20260830204140 72 148 3.5 6.1 0.00 0.00 0.00
20260830203739 73 135 3.5 5.2 0.00 0.00 0.00
20260830203337 73 137 3.5 5.2 0.00 0.00 0.00
20260830202936 73 138 4.3 6.1 0.00 0.00 0.00
20260830202534 73 153 4.3 6.1 0.00 0.00 0.00
20260830202132 73 139 3.5 6.1 0.00 0.00 0.00
20260830201724 73 135 3.5 6.1 0.00 0.00 0.00
20260830201322 73 151 3.5 5.2 0.00 0.00 0.00
20260830200920 73 135 3.5 5.2 0.00 0.00 0.00
20260830200519 73 135 3.5 7.0 0.00 0.00 0.00
20260830200117 72 135 2.6 3.5 0.00 0.00 0.00
20260830195716 73 135 2.6 3.5 0.00 0.00 0.00
20260830195313 73 135 2.6 4.3 0.00 0.00 0.00
20260830194912 74 114 1.7 3.5 0.00 0.00 0.00
20260830194511 73 135 1.7 1.7 0.00 0.00 0.00
20260830194110 74 135 2.6 4.3 0.00 0.00 0.00
20260830193702 74 135 2.6 4.3 0.00 0.00 0.00
20260830193259 74 130 3.5 6.1 0.00 0.00 0.00
20260830192858 74 130 3.5 5.2 0.00 0.00 0.00
20260830192457 74 135 3.5 5.2 0.00 0.00 0.00
20260830192055 74 136 2.6 4.3 0.00 0.00 0.00
20260830191653 75 135 3.5 5.2 0.00 0.00 0.00
20260830190850 75 135 2.6 3.5 0.00 0.00 0.00
20260830190449 75 157 3.5 5.2 0.00 0.00 0.00
20260830190046 75 157 1.7 3.5 0.00 0.00 0.00
20260830185638 76 157 1.7 2.6 0.00 0.00 0.00
20260830185236 75 157 2.6 4.3 0.00 0.00 0.00
20260830184835 75 175 1.7 2.6 0.00 0.00 0.00
20260830184433 75 180 2.6 3.5 0.00 0.00 0.00
20260830184031 76 180 0.9 2.6 0.00 0.00 0.00
20260830183630 75 180 1.7 2.6 0.00 0.00 0.00
20260830183228 75 180 1.7 1.7 0.00 0.00 0.00
20260830182827 75 180 1.7 2.6 0.00 0.00 0.00
20260830182425 75 180 1.7 2.6 0.00 0.00 0.00